Tracking 20715 objects as of 27-May-2020
HD Live streaming from Space Station
objects crossing your sky now

DELTA 1 DEB

Track DELTA 1 DEB now!
10-day predictions


NORAD ID: 12185
Int'l Code: 1978-026AA
Perigee: 787.8 km
Apogee: 927.4 km
Inclination: 99.1 °
Period: 101.9 minutes
Semi major axis: 7228 km
RCS: 0.0609 m2 (small)
Launch date: March 5, 1978
Source: United States (US)
Launch site: AIR FORCE WESTERN TEST RANGE (AFWTR)

Note: This is SATELLITE DEBRIS
aabbcc
Your satellite tracking list
Your tracking list is empty




NASA's NSSDC Master Catalog

Two Line Element Set (TLE):
1 12185U 78026AA  20147.70073813 +.00000118 +00000-0 +84512-4 0  9997
2 12185 099.1062 053.8339 0096593 049.1509 340.5350 14.12614287016606
Source of the keplerian elements: AFSPC